Temperature
10 9 8 9 9 10 10 10 9 10 10 9 8 8 7 7 6 6 6 5 4 4 3 3 3 3 3 4 4 4 4 4 5 5 5 5 5 5 5 5 5 5 5 5
9 8 9 9 9 9 9 9 9 9 9 9 8 7 7 6 6 5 5 4 4 3 3 2 2 3 3 3 3 3 3 4 4 4 4 4 4 4 4 4 4 4 4 4
8 8 9 9 9 9 9 8 8 8 7 8 7 6 6 6 5 5 5 4 3 3 2 1 1 1 2 2 2 2 2 3 3 3 3 3 3 3 4 4 4 4 4 4
8 8 8 8 8 8 7 8 8 7 6 6 7 5 6 5 4 4 4 3 2 2 1 1 0 1 1 1 1 1 2 2 2 2 2 2 2 3 3 3 3 3 3 3
7 7 7 7 7 7 7 8 7 7 6 5 6 5 5 5 4 3 3 2 1 1 0 -0 -0 -0 -0 0 0 1 1 1 2 2 2 2 2 2 2 2 2 2 3 3
7 7 7 7 7 7 7 7 7 6 5 5 6 6 5 4 3 2 1 1 0 -0 -1 -1 -1 -1 -1 -1 -0 -0 0 1 1 1 1 1 1 1 2 2 2 2 2 2
7 6 6 6 6 6 6 5 5 5 5 5 7 6 4 3 2 2 1 0 -1 -1 -2 -2 -2 -2 -2 -1 -1 -1 -1 -0 0 0 1 1 1 1 1 1 2 2 2 2
6 6 6 5 5 5 5 5 4 4 5 5 6 5 2 2 1 1 0 -1 -2 -2 -2 -3 -3 -3 -3 -2 -2 -2 -2 -1 -1 -1 -0 0 0 1 1 1 1 1 1 1
5 5 5 5 6 5 5 4 5 4 4 4 5 3 1 1 0 -0 -1 -2 -2 -3 -3 -4 -4 -4 -3 -3 -3 -3 -2 -2 -2 -1 -1 -1 -1 -0 -0 0 0 1 1 1
5 4 4 5 5 5 5 4 4 3 3 4 5 4 2 -1 -1 -2 -2 -2 -3 -3 -4 -4 -4 -4 -4 -4 -3 -3 -3 -3 -2 -2 -2 -2 -1 -1 -1 -1 -0 -0 0 0
4 3 3 4 3 3 3 3 3 3 3 3 3 2 1 -0 -1 -2 -3 -3 -4 -4 -5 -5 -5 -5 -5 -4 -4 -4 -4 -3 -3 -3 -2 -2 -2 -2 -1 -1 -1 -1 -0 -0
4 3 2 3 3 3 3 3 2 2 2 3 2 1 -1 -2 -2 -2 -3 -3 -4 -5 -5 -6 -6 -6 -5 -5 -5 -5 -4 -4 -4 -4 -3 -3 -3 -2 -2 -2 -2 -1 -1 -1
3 1 1 2 2 1 1 2 2 1 1 1 1 0 -2 -2 -2 -3 -3 -4 -5 -5 -6 -6 -6 -6 -6 -6 -6 -5 -5 -5 -5 -4 -4 -4 -3 -3 -3 -3 -2 -2 -2 -2
2 1 1 2 2 1 1 0 0 0 -0 0 1 -0 -2 -3 -4 -4 -4 -5 -5 -6 -7 -7 -7 -7 -7 -7 -6 -6 -6 -5 -5 -5 -5 -4 -4 -4 -4 -3 -3 -3 -3 -2
1 -0 0 1 1 1 0 0 -0 -1 -1 -1 -1 -1 -2 -3 -4 -4 -5 -5 -6 -7 -7 -8 -8 -8 -7 -7 -7 -7 -6 -6 -6 -6 -5 -5 -5 -5 -4 -4 -4 -4 -4 -3
0 -1 -1 -1 -0 -0 -1 -1 -1 -1 -1 -1 -2 -2 -3 -4 -4 -5 -6 -6 -7 -7 -8 -8 -8 -8 -8 -8 -7 -7 -7 -6 -6 -6 -6 -6 -6 -5 -5 -5 -5 -4 -4 -4
-1 -1 -1 -1 -1 -1 -2 -2 -2 -2 -2 -2 -3 -3 -4 -5 -5 -6 -6 -7 -8 -8 -8 -9 -9 -8 -8 -8 -8 -7 -7 -7 -7 -6 -6 -6 -6 -6 -6 -6 -5 -5 -5 -5
-2 -2 -2 -2 -2 -2 -2 -3 -2 -3 -4 -4 -4 -5 -5 -5 -6 -6 -6 -7 -8 -8 -9 -9 -9 -9 -9 -8 -8 -8 -8 -7 -7 -7 -7 -7 -7 -7 -6 -7 -6 -6 -6 -6
-2 -2 -2 -2 -2 -2 -2 -3 -4 -4 -5 -5 -5 -5 -5 -6 -6 -7 -7 -7 -8 -9 -9 -9 -9 -9 -9 -9 -9 -9 -8 -8 -8 -8 -8 -8 -8 -7 -7 -7 -7 -7 -7 -6
-3 -3 -3 -2 -2 -2 -3 -5 -4 -4 -5 -5 -5 -6 -6 -7 -7 -7 -8 -8 -9 -9 -9 -10 -10 -10 -9 -9 -9 -9 -9 -9 -9 -9 -9 -9 -9 -8 -8 -8 -8 -8 -7 -7
-4 -4 -4 -3 -3 -3 -6 -6 -5 -5 -5 -6 -6 -6 -7 -8 -8 -8 -8 -9 -9 -10 -10 -10 -10 -10 -10 -10 -10 -10 -10 -10 -10 -10 -9 -9 -9 -9 -9 -9 -9 -8 -8 -8
-5 -4 -4 -4 -4 -4 -7 -7 -7 -6 -7 -7 -7 -7 -8 -8 -9 -9 -9 -10 -10 -10 -10 -10 -10 -10 -10 -10 -10 -10 -10 -10 -10 -10 -10 -10 -10 -10 -10 -10 -9 -9 -9 -8
-5 -5 -5 -5 -5 -6 -7 -7 -7 -7 -7 -8 -8 -8 -9 -9 -9 -10 -10 -10 -11 -11 -11 -11 -11 -11 -11 -11 -11 -11 -11 -11 -11 -11 -11 -10 -10 -10 -10 -10 -10 -10 -10 -9
-7 -7 -6 -7 -7 -7 -7 -7 -8 -8 -8 -9 -9 -9 -9 -10 -10 -10 -11 -11 -11 -11 -11 -11 -11 -12 -12 -12 -12 -12 -12 -12 -12 -11 -11 -11 -11 -11 -11 -11 -11 -11 -10 -10
-7 -8 -8 -8 -8 -8 -8 -8 -8 -9 -9 -9 -10 -10 -10 -10 -11 -11 -11 -11 -12 -12 -12 -12 -12 -12 -12 -12 -12 -12 -12 -12 -12 -12 -12 -12 -12 -11 -11 -11 -11 -11 -11 -11
-8 -9 -8 -8 -8 -9 -9 -9 -9 -9 -10 -10 -10 -11 -11 -11 -11 -11 -12 -12 -12 -12 -13 -13 -13 -13 -13 -13 -13 -13 -13 -13 -13 -13 -13 -12 -12 -12 -12 -12 -11 -11 -11 -11
Wind_Speed
2 3 4 3 4 5 6 6 7 6 2 3 7 6 4 3 2 2 2 2 2 3 3 4 4 4 4 4 3 3 3 3 2 1 1 1 1 1 2 3 3 3 4 5
2 4 3 3 4 6 7 8 7 5 2 3 6 6 4 4 3 2 2 2 3 3 3 3 3 4 3 3 2 2 2 1 2 1 1 0 2 1 1 2 3 3 4 5
5 0 2 4 5 7 7 7 6 4 5 5 5 5 6 4 4 2 2 2 2 2 2 2 3 3 3 3 2 2 1 1 1 1 1 1 1 1 1 0 0 1 3 4
3 2 2 4 4 4 6 3 5 4 3 4 5 5 5 6 4 3 3 2 2 2 2 3 3 3 3 3 2 2 1 1 2 1 0 1 2 1 1 2 1 1 3 4
2 1 3 4 3 4 4 5 7 6 6 6 6 5 4 6 5 4 3 3 3 3 3 3 3 3 3 3 2 2 1 1 2 2 1 1 2 1 1 2 2 2 2 3
3 1 1 2 2 3 4 4 6 5 4 7 8 7 3 3 3 3 3 3 3 4 3 3 3 3 3 3 2 2 2 2 2 2 2 1 2 2 2 2 3 2 2 2
3 4 2 1 2 1 2 1 1 2 5 6 4 5 2 3 4 4 4 3 3 3 3 4 4 3 3 3 3 3 3 2 2 2 2 2 1 3 4 3 3 3 3 3
3 3 4 1 1 1 3 2 2 3 4 3 2 4 3 5 5 6 6 4 3 3 3 3 4 4 4 4 4 3 2 2 3 3 3 3 2 1 2 3 3 4 4 4
2 2 2 0 0 1 2 2 2 2 4 4 4 2 3 3 5 5 5 4 3 3 3 3 3 4 4 4 4 3 3 2 3 3 3 3 3 2 2 2 2 3 3 3
3 4 2 1 2 2 1 1 1 2 3 5 4 3 2 2 1 2 2 2 2 3 3 4 3 4 4 4 4 3 3 3 3 3 3 3 3 3 2 2 2 2 3 3
3 3 2 2 3 3 2 3 3 3 4 3 4 2 2 3 3 3 2 1 1 2 3 3 3 3 4 4 4 4 4 4 4 4 3 3 3 3 2 2 2 2 3 3
1 2 4 3 0 1 1 2 3 3 5 4 4 3 3 5 4 4 2 2 2 2 2 3 3 3 4 4 4 5 4 4 4 4 4 3 3 3 3 2 2 2 3 3
1 1 3 2 0 1 1 2 3 3 3 4 4 4 3 3 4 3 2 2 2 2 2 3 3 4 4 4 4 5 5 4 5 4 4 4 3 3 4 4 3 3 3 3
0 3 5 6 3 1 4 4 4 4 4 5 6 5 2 1 1 1 1 1 1 2 3 3 4 4 5 4 4 5 5 5 5 5 4 4 4 4 4 4 4 4 4 3
1 4 5 7 8 6 6 7 7 8 7 7 6 6 5 2 1 1 1 1 1 2 3 3 4 5 5 5 5 5 6 6 5 5 5 5 5 5 5 4 4 4 4 4
2 3 3 6 6 5 7 8 8 8 8 8 8 7 2 1 2 2 1 1 1 2 3 3 4 5 5 5 6 6 6 6 5 5 5 6 5 5 5 5 5 4 4 4
2 2 2 4 3 4 6 7 7 5 4 4 7 6 1 1 1 1 2 1 1 2 3 3 4 4 5 5 5 5 6 6 5 5 5 6 5 5 5 5 5 4 4 4
3 3 2 3 2 6 5 1 3 3 3 3 2 1 0 1 0 0 2 1 1 2 3 3 4 4 5 5 5 5 5 5 5 5 5 6 6 6 6 5 5 5 4 4
2 3 3 2 4 6 3 1 2 3 2 1 3 2 1 1 1 1 2 2 1 1 2 2 3 4 4 5 5 5 5 5 5 5 6 6 6 6 6 6 6 5 4 4
0 2 3 4 4 5 2 1 1 3 3 1 1 1 1 1 1 2 2 2 2 2 2 3 3 3 4 5 5 5 5 5 6 6 6 6 6 6 6 7 6 5 5 5
2 3 5 6 5 4 1 0 1 2 3 1 1 0 1 1 2 1 1 2 1 2 2 3 3 3 4 5 5 5 5 6 7 7 7 6 6 6 6 6 5 5 5 5
5 4 4 4 6 6 0 2 3 2 1 1 2 2 2 1 2 2 1 2 2 2 3 3 3 4 4 4 5 6 6 7 7 7 7 7 6 6 6 5 5 5 5 5
4 4 2 4 4 1 3 3 1 1 1 2 2 2 2 2 2 3 2 2 2 3 3 3 4 5 5 4 4 6 7 7 7 7 8 7 7 6 6 5 5 4 4 4
2 0 2 2 2 1 1 1 1 1 1 2 2 2 1 2 2 3 3 3 3 3 3 3 4 5 5 5 5 6 7 7 7 7 8 7 7 6 5 4 4 4 4 3
1 2 2 3 2 2 1 1 0 1 2 2 2 2 1 1 2 3 3 3 3 4 4 4 4 5 6 6 6 6 6 6 7 7 7 7 7 6 4 4 4 5 4 4
2 3 4 4 2 2 1 1 2 1 1 1 2 2 2 2 3 3 3 3 3 4 4 4 5 5 6 6 6 6 6 6 6 7 7 6 5 5 4 4 5 7 7 9
Wind_Direction
193 219 227 237 241 269 281 274 269 277 272 251 239 239 202 184 179 157 151 129 97 81 69 62 59 66 64 59 57 55 47 36 46 57 101 147 161 144 103 111 122 132 138 140
226 231 256 281 272 264 267 271 271 288 286 268 260 256 212 185 175 152 131 121 105 73 56 49 49 58 64 60 57 57 54 38 22 349 346 218 170 159 125 107 125 142 146 149
225 262 260 262 266 262 257 257 271 280 309 274 260 252 209 183 158 144 108 90 87 101 82 51 41 46 47 44 41 25 7 360 3 6 19 52 74 99 80 100 158 161 166 162
237 254 277 263 267 275 264 279 282 269 259 252 213 257 215 182 175 166 142 106 76 81 72 58 44 38 31 18 16 24 12 350 350 15 59 181 180 204 232 204 209 201 176 171
235 242 267 257 268 280 277 297 274 256 245 264 228 241 232 168 194 193 154 113 87 71 79 65 44 34 20 10 4 6 16 354 2 353 303 224 194 213 191 190 190 210 193 174
238 183 265 302 290 263 294 292 265 237 235 249 217 212 234 182 183 142 113 97 80 60 55 59 45 40 27 19 16 14 13 3 355 346 342 308 208 199 192 196 199 210 219 194
225 182 162 291 295 241 290 317 302 233 219 239 191 211 199 99 87 110 122 102 73 66 49 39 29 22 19 16 15 14 5 355 356 350 336 328 265 213 205 200 204 210 221 223
256 231 167 157 204 239 246 231 219 246 256 286 229 225 147 96 75 75 91 97 73 61 52 37 24 21 14 7 9 5 357 353 350 344 333 328 315 239 232 221 216 214 222 228
288 254 111 96 348 249 244 229 243 279 282 266 234 158 144 86 70 68 73 78 65 53 40 27 24 21 12 4 0 355 354 353 344 341 336 322 327 298 273 258 244 232 236 240
319 277 240 204 225 232 246 296 265 236 266 267 258 220 192 162 154 91 72 70 54 40 31 19 18 12 7 4 360 358 0 355 350 344 329 325 322 314 293 266 253 252 252 247
297 273 248 217 209 217 193 220 239 252 248 255 270 259 57 133 143 141 119 81 64 40 23 15 6 5 5 6 6 2 2 356 351 344 337 337 335 331 310 277 267 265 264 247
271 285 261 232 114 10 225 223 207 226 250 238 261 263 77 78 78 87 85 70 69 53 30 23 12 6 8 6 4 1 355 354 346 339 336 337 340 338 328 298 290 284 264 253
39 238 280 255 251 319 248 236 240 249 268 243 240 244 98 69 65 64 62 55 60 55 32 21 12 7 5 3 359 354 350 349 344 339 337 336 337 335 327 320 307 299 286 268
326 225 223 242 267 254 251 247 230 214 231 249 236 250 261 302 18 41 54 52 64 51 25 12 6 2 359 359 356 351 348 348 347 343 339 334 333 329 321 321 321 307 296 277
205 248 252 270 284 274 260 252 229 221 227 236 251 259 269 254 221 181 96 81 77 31 7 360 358 356 352 350 351 349 344 345 345 343 341 336 334 334 331 326 321 312 296 287
217 257 289 277 264 264 272 263 242 240 242 244 261 270 296 28 85 113 116 88 29 353 350 354 352 348 344 342 341 340 339 339 340 338 335 337 339 335 330 323 318 312 303 290
208 212 256 267 292 318 274 248 225 220 226 223 244 249 28 48 26 199 169 151 314 338 348 347 342 338 335 334 333 328 326 330 333 332 331 334 333 328 322 317 317 312 306 301
202 212 231 272 307 251 242 71 149 188 244 226 229 283 302 227 332 100 124 117 3 351 348 343 338 335 335 333 330 324 324 327 329 330 329 328 327 321 320 316 310 305 301 296
215 198 226 240 253 261 248 191 153 180 269 240 225 272 338 59 45 39 61 50 15 343 332 325 329 324 328 329 326 323 325 327 329 327 325 324 320 316 315 311 305 297 293 287
259 198 219 230 243 249 245 50 35 104 263 309 108 274 357 46 276 272 26 17 7 7 0 347 340 334 332 329 328 329 326 327 323 320 317 316 313 307 304 302 300 297 289 284
176 203 220 233 242 258 283 299 98 167 247 356 52 343 29 247 243 293 348 351 359 353 349 347 336 327 326 331 335 330 327 323 319 318 315 312 309 303 298 297 298 297 294 291
187 196 207 211 228 246 121 131 176 216 41 40 34 26 7 347 3 354 341 337 345 342 342 343 332 324 328 337 337 328 323 322 322 319 314 311 309 306 305 300 299 299 297 294
197 199 201 202 216 153 141 154 139 60 46 15 10 357 360 342 324 328 326 325 328 328 327 332 326 322 325 332 334 323 322 325 324 320 315 312 311 307 304 298 295 293 290 288
214 234 228 256 260 219 175 147 44 46 34 6 9 0 352 310 315 319 316 320 323 320 321 327 326 322 323 327 327 323 323 325 322 317 315 315 313 308 300 295 291 290 287 288
251 170 224 252 268 315 280 206 114 46 32 21 13 2 338 321 315 314 308 311 313 316 321 322 318 313 314 321 322 323 325 326 321 317 316 316 315 307 300 297 285 285 273 276
215 206 213 238 242 221 256 44 51 68 5 345 344 340 345 336 313 315 309 310 311 314 320 318 314 312 313 318 318 320 322 323 319 317 318 318 319 315 307 303 304 298 293 296
Height
1471 1474 1473 1473 1473 1473 1472 1471 1472 1471 1471 1473 1474 1475 1478 1479 1480 1481 1483 1484 1486 1486 1487 1488 1488 1488 1488 1488 1489 1490 1491 1492 1493 1495 1496 1497 1499 1500 1502 1504 1505 1507 1509 1510
1472 1473 1472 1471 1471 1472 1471 1472 1472 1471 1470 1472 1474 1474 1475 1477 1478 1480 1482 1483 1484 1485 1485 1486 1486 1486 1486 1486 1486 1488 1489 1489 1491 1492 1493 1495 1496 1498 1499 1501 1503 1504 1505 1507
1471 1472 1471 1471 1471 1471 1470 1472 1471 1473 1474 1472 1474 1474 1474 1475 1477 1479 1480 1482 1483 1484 1484 1484 1484 1484 1484 1484 1484 1485 1486 1487 1488 1489 1490 1492 1493 1494 1496 1497 1499 1501 1502 1503
1470 1471 1470 1470 1470 1471 1471 1469 1470 1472 1478 1476 1474 1478 1470 1472 1475 1477 1479 1480 1482 1483 1483 1483 1483 1483 1482 1482 1483 1483 1483 1484 1485 1486 1487 1488 1489 1490 1491 1493 1495 1497 1499 1500
1470 1470 1471 1470 1470 1471 1471 1469 1470 1471 1475 1476 1473 1476 1468 1469 1473 1475 1477 1479 1480 1481 1481 1481 1481 1481 1481 1481 1481 1481 1481 1481 1482 1483 1484 1485 1486 1487 1488 1490 1492 1494 1495 1496
1469 1470 1471 1471 1470 1471 1470 1470 1468 1470 1474 1476 1465 1469 1466 1469 1470 1474 1477 1478 1479 1480 1480 1480 1480 1480 1480 1479 1479 1478 1478 1479 1479 1480 1481 1482 1482 1483 1485 1486 1488 1489 1491 1492
1468 1469 1470 1471 1471 1471 1471 1475 1478 1476 1476 1467 1456 1461 1470 1470 1470 1472 1475 1477 1479 1479 1480 1479 1478 1478 1477 1477 1476 1476 1476 1476 1476 1477 1478 1478 1479 1480 1481 1482 1484 1485 1487 1488
1470 1470 1469 1470 1472 1474 1472 1473 1480 1481 1472 1464 1458 1463 1472 1472 1472 1473 1475 1477 1478 1479 1479 1478 1477 1476 1476 1475 1474 1474 1474 1473 1473 1474 1474 1475 1476 1477 1478 1479 1480 1481 1483 1484
1473 1470 1469 1469 1470 1472 1473 1474 1473 1477 1472 1472 1462 1466 1474 1472 1473 1475 1476 1477 1478 1478 1478 1477 1476 1475 1474 1473 1473 1472 1472 1471 1471 1471 1471 1472 1472 1472 1473 1475 1476 1477 1478 1479
1474 1476 1471 1470 1471 1471 1472 1473 1476 1478 1477 1471 1460 1461 1469 1475 1475 1476 1476 1477 1477 1478 1477 1476 1475 1474 1473 1472 1471 1471 1470 1469 1469 1469 1468 1468 1469 1469 1470 1470 1471 1472 1473 1475
1474 1478 1474 1472 1473 1472 1473 1475 1475 1475 1473 1475 1470 1470 1470 1470 1472 1474 1476 1477 1477 1477 1476 1475 1474 1473 1472 1471 1470 1469 1468 1467 1467 1466 1466 1465 1465 1466 1466 1466 1467 1468 1469 1470
1474 1477 1476 1472 1470 1470 1471 1472 1475 1481 1476 1471 1472 1477 1472 1472 1472 1474 1475 1476 1476 1476 1476 1475 1473 1472 1470 1469 1468 1467 1466 1465 1464 1464 1463 1463 1463 1463 1462 1462 1462 1463 1464 1465
1476 1480 1479 1472 1475 1475 1474 1473 1474 1477 1477 1474 1474 1477 1474 1473 1473 1474 1475 1475 1475 1475 1474 1473 1472 1470 1469 1468 1466 1466 1465 1464 1463 1461 1461 1460 1459 1459 1459 1458 1458 1459 1459 1460
1476 1479 1480 1476 1469 1473 1475 1475 1474 1476 1478 1473 1469 1470 1473 1473 1473 1474 1474 1474 1474 1474 1473 1472 1470 1469 1468 1467 1465 1464 1463 1462 1460 1459 1458 1457 1456 1456 1455 1455 1454 1454 1455 1455
1476 1478 1475 1472 1469 1469 1471 1471 1472 1474 1473 1473 1469 1469 1469 1471 1472 1472 1473 1473 1473 1472 1471 1470 1469 1468 1466 1465 1463 1462 1461 1460 1458 1457 1456 1455 1454 1453 1452 1451 1451 1450 1450 1450
1475 1477 1476 1474 1469 1469 1469 1467 1468 1469 1469 1469 1468 1469 1468 1469 1470 1471 1471 1471 1471 1471 1470 1469 1467 1466 1464 1463 1461 1460 1459 1457 1457 1455 1454 1453 1451 1450 1449 1448 1447 1446 1446 1446
1475 1478 1478 1474 1470 1470 1471 1467 1466 1467 1466 1468 1468 1469 1468 1469 1469 1469 1469 1469 1469 1469 1468 1467 1465 1464 1463 1461 1460 1458 1457 1455 1454 1453 1452 1450 1449 1447 1446 1445 1444 1443 1442 1441
1475 1476 1477 1475 1474 1476 1467 1463 1462 1465 1466 1467 1467 1467 1467 1468 1468 1468 1468 1468 1467 1467 1466 1465 1464 1462 1461 1460 1458 1456 1455 1453 1452 1450 1449 1448 1446 1444 1443 1441 1440 1439 1438 1437
1472 1475 1475 1475 1474 1466 1464 1463 1464 1466 1467 1465 1466 1466 1466 1466 1466 1467 1467 1466 1466 1465 1464 1463 1462 1460 1459 1457 1456 1454 1452 1450 1449 1447 1446 1444 1443 1441 1439 1438 1436 1435 1434 1433
1472 1473 1476 1472 1471 1466 1464 1465 1463 1466 1469 1465 1464 1465 1466 1466 1468 1467 1465 1465 1464 1463 1462 1461 1460 1458 1457 1455 1453 1451 1449 1448 1446 1444 1442 1441 1440 1438 1436 1434 1432 1431 1430 1429
1475 1475 1475 1472 1469 1464 1467 1464 1464 1470 1467 1465 1464 1464 1465 1465 1466 1465 1463 1463 1462 1461 1460 1459 1457 1456 1454 1452 1451 1449 1447 1445 1443 1441 1439 1438 1436 1434 1432 1430 1429 1427 1426 1425
1471 1471 1471 1469 1469 1467 1466 1465 1467 1466 1464 1464 1464 1464 1464 1463 1463 1462 1461 1460 1459 1458 1457 1456 1454 1453 1451 1450 1448 1446 1444 1442 1440 1438 1436 1434 1432 1430 1428 1426 1425 1424 1422 1421
1466 1468 1466 1467 1467 1464 1463 1463 1463 1463 1463 1463 1463 1462 1462 1461 1461 1460 1459 1458 1457 1456 1454 1453 1452 1450 1449 1447 1445 1443 1441 1439 1437 1435 1432 1430 1427 1426 1424 1423 1421 1420 1419 1418
1465 1465 1465 1465 1463 1462 1462 1462 1462 1462 1462 1462 1461 1461 1460 1459 1459 1458 1457 1455 1454 1453 1452 1450 1449 1447 1446 1444 1443 1441 1439 1436 1434 1431 1429 1426 1424 1422 1420 1419 1418 1417 1416 1415
1464 1465 1464 1465 1463 1462 1461 1461 1461 1461 1460 1460 1459 1459 1458 1457 1456 1455 1454 1453 1452 1450 1449 1448 1446 1445 1443 1441 1440 1438 1436 1433 1430 1428 1425 1423 1421 1418 1417 1416 1415 1414 1413 1413
1462 1464 1464 1462 1460 1461 1460 1460 1459 1459 1458 1458 1457 1456 1456 1455 1453 1452 1451 1450 1449 1448 1447 1445 1444 1442 1440 1438 1436 1435 1432 1430 1428 1425 1422 1420 1418 1416 1414 1413 1412 1411 1411 1410